Zurück zum Katalog

SL-19 R/B

AktivPO
NORAD 35501·ROCKET BODY·🇷🇺 Russia

Gestartet Jul 6, 2009 von Plesetsk Cosmodrome

Loading…

Nächste Überflüge (nächste 24 Stunden)

TLE

AktuellSource: Space-Track

Epoche: Sep 14, 2026, 01:45 UTC

1 35501U 09036D   26257.07307549  .00000032  00000-0  81248-4 0  9991
2 35501  82.4922 129.7700 0197070  85.6281  85.9884 12.76651707801141

Verfolge SL-19 R/B in Echtzeit mit AllMySat

Download on the App Store